User: anonymous
Location: Edmonton
(53.5500°N, 113.5000°W)
Time: 11:27:05
(UTC-06:00)
Language:

CZ-4C R/B - Orbit

View from above orbital plane
View from above orbital plane
View from above satellite
View from above satellite

Ground track
Ground track

The orbit data is extracted from the following two-line orbital elements,

1 36416U 10009D   14202.51775249 -.00000088  00000-0  73964-5 0  7235
2 36416 063.4470 228.2398 0283358 000.4338 149.9974 13.69418923218984
Epoch (UTC): 21 July 2014 12:25:33
Eccentricity: 0.0283358
inclination: 63.4470°
perigee height: 792 km
apogee height: 1211 km
right ascension of ascending node: 228.2398°
argument of perigee: 0.4338°
revolutions per day: 13.69418923
mean anomaly at epoch: 149.9974°
orbit number at epoch: 21898

The dashed part of the orbit path shows where the satellite is in the earth's shadow,  

DLR